Location: Igon
(43.1667°N, 0.2333°W)
Time: 21:05:36
(UTC+00:00)

NOSS 3-4 (A) - Pass Details

Date: 29 November 2020
Orbit: 879 x 1333 km, 63.4° (Epoch: 18 January)

Event Time Altitude Azimuth Distance (km) Brightness Sun altitude
Exits shadow 05:48:15 21° 282° (WNW) 1,918 4.4 -14.7°
Maximum altitude 05:50:59 30° 323° (NW) 1,618 4.2 -14.3°
Drops below altitude 10° 05:56:30 10° 24° (NNE) 2,754 5.9 -13.3°
Sets 05:59:35 0° 35° (NE) 3,779 6.8 -12.8°
